FENGYUN 1C DEB, 29857

Orbit data source: Space-Track

FENGYUN 1C DEB, 29857 is space debris in SSO originally from a launch on Mon, 10 May 1999 UTC launched from the Taiyaun Space Center, China (TSC). Fengyun 1C debris stems from the Chinese weather satellite Fengyun-1C, which was intentionally destroyed by a Chinese anti-satellite missile in 2007. This event dramatically increased the amount of space debris, with thousands of trackable fragments posing hazards to satellites and human spaceflight. The Fengyun 1C debris cloud has become a focal point in discussions about space sustainability and the need for international regulations to prevent the creation of new debris.

Loading next visibility...
Identifier
29857, 1999-025FB
Orbit
SSO
Country
Flag of CNCN / PRC
Related business
Manufacturer
Unknown
Mission
Spacecraft
Bus & Motor
Unknown
Mass
Unknown
Launch date (UTC)
1999-05-10 (27 years ago)
Launch vehicle
Unknown
Launch site
Taiyaun Space Center, China (TSC)
Object type
Payload
Rocket body
Debris
Shape & HBR
Unknown shape, 0.1 m
Radar Cross Section
Small (<0.1 m²)

Expand to show TLE details & history
Last TLE update: 17 hours ago

TLE from 17 hours ago
0 FENGYUN 1C DEB
1 29857U 99025FB  25354.46625594  .00001323  00000-0  11027-2 0  9998
2 29857  98.4220   0.9797 0192746 273.2518  84.6604 13.81906200948826
Epoch: 2025-12-20T11:11Z
TLE epoch observation values (Epoch: 2025-12-20T11:11:24.513Z)
Latitude
-0.00006°
Longitude
103.83492°
Altitude
949.555 km
Speed
7.382 km/s
True Right ascension
00h 03m 55s
True Declination
0° 00' 00"
Sunlit
Object was in daylight at epoch
Visualization orbit readout
Latitude
Unknown
Longitude
Unknown
Altitude
Unknown
Speed
Unknown
Apparent Right ascension
Unknown
Apparent Declination
Unknown
Sunlit
N/A
Visualization observer readout
Local Sidereal Time
03:29:00
Azimuth
Unknown
Elevation
Unknown
Doppler factor
Unknown
Orbital elements
Apogee altitude
1,095.659 km
Perigee altitude
812.998 km
Semi-major axis
7,332.465 km
Eccentricity
0.01927
Inclination
98.422°
RAAN
0.9797°
Arg. of periapsis
273.2518°
True anomaly
86.86392°
Mean anomaly
84.6604°
Eccentric anomaly
85.76173°
Mean motion
3.45675 °/min
Orbital period
104.14 mins
BSTAR
0.0011027
Loading maneuver chart data...
Computing Atmospheric mass density...

Documentation

Showing up to 5 results
|